Weather History for KVEL - July, 2013

Change the Weather History Date:

Sunday, July 28, 2013

  Actual Average Record
Temperature  
Mean Temperature 68 °F 73 °F  
Max Temperature 77 °F 88 °F 101 °F (1931)
Min Temperature 59 °F 58 °F 40 °F (1958)
Degree Days  
Heating Degree Days 0 0  
Month to date heating degree days 0 2  
Since 1 June heating degree days 15 74  
Since 1 July heating degree days 0 2  
Cooling Degree Days 3 8  
Month to date cooling degree days 315 202  
Year to date cooling degree days 493 293  
Since 1 June cooling degree days 485 284  
Growing Degree Days 17 (Base 50)    
Moisture  
Dew Point 55 °F    
Average Humidity 68    
Maximum Humidity 97    
Minimum Humidity 38    
Precipitation  
Precipitation 0.14 in 0.02 in 0.14 in (2013)
Month to date precipitation 0.30 0.56  
Year to date precipitation 4.09 4.77  
Sea Level Pressure  
Sea Level Pressure 29.85 in    
Wind  
Wind Speed 4 mph (WNW)    
Max Wind Speed 21 mph    
Max Gust Speed 25 mph    
Visibility 10 miles    
Events Rain    
T = Trace of Precipitation, MM = Missing Value Source: NWS Daily Summary

Daily Weather History Graph

Daily Weather History Graph

Search for Another Location

Airport or City:

Trip Planner

Search our weather history database for the weather conditions in past years. The results will help you decide how hot, cold, wet, or windy it might be!

Date:

Astronomy

Jul. 28, 2013 Rise Set
Actual Time 6:11 AM MDT 8:36 PM MDT
Civil Twilight 5:41 AM MDT 9:07 PM MDT
Nautical Twilight 5:02 AM MDT 9:45 PM MDT
Astronomical Twilight 4:20 AM MDT 10:27 PM MDT
Moon 11:58 PM MDT (7/28) 12:59 PM MDT (7/28)
Length of Visible Light 15h 26m
Length of Day
14h 24m
Waning Gibbous, 60% of the Moon is Illuminated
Jul 28
Waning Gibbous
Jul 29
Last Quarter
Aug 6
New
Aug 14
First Quarter
Aug 20
Full

Hourly Weather History & Observations

Time (MDT) Temp. Dew Point Humidity Pressure Visibility Wind Dir Wind Speed Gust Speed Precip Events Conditions
12:53 AM 62.1 °F 57.9 °F 86% 29.89 in 10.0 mi NNW 6.9 mph - 0.06 in Rain Light Rain
1:53 AM 61.0 °F 57.9 °F 90% 29.89 in 10.0 mi North 5.8 mph - 0.01 in   Overcast
2:53 AM 61.0 °F 57.0 °F 87% 29.86 in 10.0 mi North 5.8 mph - 0.03 in   Overcast
3:53 AM 60.1 °F 59.0 °F 96% 29.85 in 10.0 mi SW 3.5 mph - N/A   Mostly Cloudy
4:53 AM 60.1 °F 57.9 °F 93% 29.87 in 10.0 mi SW 3.5 mph - N/A   Overcast
5:53 AM 60.1 °F 57.0 °F 90% 29.88 in 10.0 mi Calm Calm - N/A   Overcast
6:53 AM 59.0 °F 57.9 °F 96% 29.89 in 10.0 mi WNW 3.5 mph - N/A   Clear
7:53 AM 61.0 °F 57.9 °F 90% 29.89 in 10.0 mi Calm Calm - N/A   Clear
8:53 AM 64.0 °F 59.0 °F 84% 29.89 in 10.0 mi Calm Calm - N/A   Partly Cloudy
11:53 AM 73.0 °F 55.0 °F 53% 29.86 in 10.0 mi Variable 5.8 mph - N/A   Clear
12:53 PM 75.0 °F 55.0 °F 50% 29.86 in 10.0 mi Calm Calm - N/A   Clear
1:53 PM 71.1 °F 54.0 °F 55% 29.86 in 6.0 mi WSW 4.6 mph - 0.03 in Rain Light Rain
2:53 PM 73.9 °F 55.9 °F 53% 29.83 in 10.0 mi NNW 8.1 mph - 0.05 in   Partly Cloudy
3:53 PM 73.9 °F 55.0 °F 52% 29.81 in 10.0 mi West 5.8 mph - 0.02 in   Clear
4:53 PM 73.9 °F 54.0 °F 50% 29.82 in 10.0 mi NW 18.4 mph 25.3 mph N/A   Overcast
5:53 PM 75.0 °F 48.9 °F 40% 29.81 in 10.0 mi NW 10.4 mph - 0.00 in   Mostly Cloudy
6:53 PM 73.0 °F 52.0 °F 48% 29.82 in 10.0 mi NW 4.6 mph - N/A   Scattered Clouds
7:53 PM 72.0 °F 50.0 °F 46% 29.81 in 10.0 mi Calm Calm - N/A   Clear
8:53 PM 68.0 °F 53.1 °F 59% 29.82 in 10.0 mi WSW 3.5 mph - N/A   Clear
9:53 PM 64.0 °F 54.0 °F 70% 29.85 in 10.0 mi Calm Calm - N/A   Clear
10:53 PM 66.0 °F 52.0 °F 60% 29.84 in 10.0 mi West 4.6 mph - N/A   Clear